KF5PJP Weather Reports


Display with metric or nautical units.
time (UTC)temp
F
wind
direction
speed
MPH
gust
MPH
rain 1hr
in
rain 24hr
in
rain mn
in
humidity
%
barometer
mb
20260505093906 68 53 1.0 11.0 0.00 0.00 0.00 87 1005.5
20260505093341 68 39 0.0 3.0 0.00 0.00 0.00 87 1005.5
20260505092907 68 65 1.0 3.0 0.00 0.00 0.00 87 1005.6
20260505092440 68 281 1.0 5.0 0.00 0.00 0.00 87 1005.7
20260505091856 68 68 1.0 7.0 0.00 0.00 0.00 87 1005.8
20260505091426 68 18 1.0 7.0 0.00 0.00 0.00 87 1005.7
20260505090849 68 69 1.0 5.0 0.00 0.00 0.00 87 1005.8
20260505090435 68 59 0.0 3.0 0.00 0.00 0.00 87 1005.9
20260505085858 68 27 1.0 3.0 0.00 0.00 0.00 87 1005.8
20260505085415 68 245 1.0 3.0 0.00 0.00 0.00 87 1005.9
20260505084357 68 346 0.0 9.0 0.00 0.00 0.00 87 1006.1
20260505083933 67 76 1.0 3.0 0.00 0.00 0.00 87 1006.1
20260505082932 67 273 0.0 3.0 0.00 0.00 0.00 87 1006.2
20260505082350 67 59 0.0 3.0 0.00 0.00 0.00 87 1006.2
20260505081927 67 113 1.0 3.0 0.00 0.00 0.00 87 1006.3
20260505081353 67 151 0.0 5.0 0.00 0.00 0.00 87 1006.3
20260505080411 67 132 0.0 2.0 0.00 0.00 0.00 87 1006.3
20260505075840 67 255 0.0 1.0 0.00 0.00 0.00 87 1006.4
20260505075411 67 302 0.0 1.0 0.00 0.00 0.00 87 1006.6
20260505074956 67 85 0.0 3.0 0.00 0.00 0.00 87 1006.5
20260505074344 67 82 1.0 3.0 0.00 0.00 0.00 86 1006.6
20260505073925 67 79 0.0 3.0 0.00 0.00 0.00 86 1006.6
20260505072910 67 57 1.0 3.0 0.00 0.00 0.00 86 1006.7
20260505071853 67 234 0.0 5.0 0.00 0.00 0.00 86 1006.9
20260505071433 67 277 1.0 5.0 0.00 0.00 0.00 86 1006.9
20260505070849 68 150 0.0 3.0 0.00 0.00 0.00 85 1007.0
20260505065846 68 115 0.0 2.0 0.00 0.00 0.00 85 1007.1
20260505065346 68 60 1.0 2.0 0.00 0.00 0.00 85 1007.0
20260505064905 68 130 0.0 2.0 0.00 0.00 0.00 85 1007.0
20260505064354 68 108 0.0 2.0 0.00 0.00 0.00 85 1007.0
20260505063916 68 35 0.0 2.0 0.00 0.00 0.00 84 1007.1
20260505063401 68 115 0.0 2.0 0.00 0.00 0.00 84 1007.2
20260505062913 68 15 0.0 1.0 0.00 0.00 0.00 84 1007.3
20260505062353 68 69 0.0 2.0 0.00 0.00 0.00 84 1007.4
20260505061910 68 96 0.0 2.0 0.00 0.00 0.00 84 1007.5
20260505061358 68 323 0.0 1.0 0.00 0.00 0.00 83 1007.5
20260505060854 68 256 0.0 2.0 0.00 0.00 0.00 83 1007.6
20260505060356 68 81 0.0 2.0 0.00 0.00 0.00 83 1007.5
20260505055852 69 30 0.0 0.0 0.00 0.00 0.00 82 1007.4
20260505055344 69 35 0.0 2.0 0.00 0.00 0.00 82 1007.5
20260505054917 69 38 0.0 2.0 0.00 0.00 0.00 82 1007.4
20260505054357 69 254 0.0 3.0 0.00 0.00 0.00 81 1007.5
20260505053856 69 209 0.0 4.0 0.00 0.00 0.00 81 1007.5
20260505053356 69 252 0.0 4.0 0.00 0.00 0.00 81 1007.6
20260505052840 69 155 0.0 2.0 0.00 0.00 0.00 81 1007.7
20260505052405 69 260 0.0 2.0 0.00 0.00 0.00 80 1007.6
20260505051859 69 27 0.0 2.0 0.00 0.00 0.00 80 1007.5
20260505051356 70 217 0.0 2.0 0.00 0.00 0.00 80 1007.6
20260505050845 70 325 0.0 2.0 0.00 0.00 0.00 80 1007.8
20260505050359 70 69 0.0 3.0 0.00 0.00 0.00 79 1007.9
20260505041420 71 263 0.0 0.0 0.00 0.00 0.00 77 1007.8
20260505040842 71 198 0.0 2.0 0.00 0.00 0.00 76 1007.8
20260505035856 71 215 0.0 2.0 0.00 0.00 0.00 76 1007.9
20260505035434 71 86 0.0 2.0 0.00 0.00 0.00 75 1007.9
20260505034843 71 132 0.0 2.0 0.00 0.00 0.00 75 1007.9
20260505034422 71 58 0.0 2.0 0.00 0.00 0.00 75 1007.8
20260505033933 71 97 0.0 0.0 0.00 0.00 0.00 74 1007.9
20260505032909 72 97 0.0 0.0 0.00 0.00 0.00 73 1007.8
20260505031855 72 100 0.0 1.0 0.00 0.00 0.00 72 1007.6
20260505031428 72 100 0.0 1.0 0.00 0.00 0.00 72 1007.7
20260505030838 72 100 0.0 1.0 0.00 0.00 0.00 71 1007.5
20260505025852 72 86 0.0 1.0 0.00 0.00 0.00 70 1007.6
20260505025426 72 238 0.0 1.0 0.00 0.00 0.00 70 1007.6
20260505024846 72 108 0.0 2.0 0.00 0.00 0.00 70 1007.5
20260505024414 72 281 0.0 2.0 0.00 0.00 0.00 70 1007.3
20260505023407 72 263 0.0 1.0 0.00 0.00 0.00 70 1007.4
20260505022357 72 117 0.0 1.0 0.00 0.00 0.00 69 1007.5
20260505021937 72 119 0.0 3.0 0.00 0.00 0.00 69 1007.4
20260505021457 73 109 0.0 3.0 0.00 0.00 0.00 69 1007.5
20260505020850 73 103 0.0 1.0 0.00 0.00 0.00 68 1007.6
20260505020427 73 103 0.0 1.0 0.00 0.00 0.00 68 1007.6
20260505015949 73 128 0.0 1.0 0.00 0.00 0.00 68 1007.6
20260505015345 73 86 0.0 1.0 0.00 0.00 0.00 67 1007.6
20260505014926 73 86 0.0 1.0 0.00 0.00 0.00 67 1007.5
20260505014338 74 86 0.0 1.0 0.00 0.00 0.00 66 1007.5
20260505013903 74 86 0.0 2.0 0.00 0.00 0.00 66 1007.4
20260505013434 74 126 0.0 1.0 0.00 0.00 0.00 66 1007.3
20260505012939 74 62 0.0 1.0 0.00 0.00 0.00 65 1007.3
20260505012353 74 82 0.0 1.0 0.00 0.00 0.00 64 1007.3
20260505011922 75 70 0.0 3.0 0.00 0.00 0.00 64 1007.3
20260505011351 75 96 1.0 3.0 0.00 0.00 0.00 63 1007.3
20260505010928 75 75 0.0 3.0 0.00 0.00 0.00 63 1007.4
20260505005901 76 100 0.0 2.0 0.00 0.00 0.00 62 1007.4
20260505005416 76 100 0.0 2.0 0.00 0.00 0.00 62 1007.2
20260505004409 76 288 0.0 5.0 0.00 0.00 0.00 60 1007.3
20260505003349 77 106 0.0 0.0 0.00 0.00 0.00 60 1007.2
20260505002905 77 288 0.0 3.0 0.00 0.00 0.00 59 1007.2
20260505001916 77 281 0.0 1.0 0.00 0.00 0.00 59 1007.3
20260505000914 78 88 0.0 2.0 0.00 0.00 0.00 58 1007.4
20260504235912 78 292 0.0 2.0 0.00 0.00 0.00 56 1007.5
20260504235454 79 254 1.0 3.0 0.00 0.00 0.00 56 1007.5
20260504234847 79 109 0.0 2.0 0.00 0.00 0.00 56 1007.6
20260504233902 79 253 1.0 3.0 0.00 0.00 0.00 55 1007.9
20260504233433 79 238 0.0 3.0 0.00 0.00 0.00 55 1007.9
20260504232407 80 105 1.0 7.0 0.00 0.00 0.00 54 1008.0
20260504231935 80 142 1.0 7.0 0.00 0.00 0.00 54 1007.9
20260504230902 80 256 1.0 6.0 0.00 0.00 0.00 54 1007.9
20260504225910 81 340 0.0 7.0 0.00 0.00 0.00 53 1008.0
20260504224902 81 80 0.0 3.0 0.00 0.00 0.00 52 1008.1
20260504224437 81 22 0.0 3.0 0.00 0.00 0.00 52 1008.2
20260504223852 81 16 1.0 3.0 0.00 0.00 0.00 52 1008.2
20260504222840 81 130 0.0 3.0 0.00 0.00 0.00 51 1008.4
20260504221909 82 37 2.0 7.0 0.00 0.00 0.00 51 1008.4
20260504220851 83 338 2.0 8.0 0.00 0.00 0.00 48 1008.4
20260504220431 83 77 2.0 8.0 0.00 0.00 0.00 48 1008.4
20260504215411 83 96 1.0 4.0 0.00 0.00 0.00 48 1008.7
20260504214405 83 135 1.0 7.0 0.00 0.00 0.00 47 1008.8
20260504213846 83 269 0.0 5.0 0.00 0.00 0.00 47 1009.0
20260504213414 83 323 1.0 5.0 0.00 0.00 0.00 47 1009.0
20260504212841 82 13 1.0 5.0 0.00 0.00 0.00 46 1009.2
20260504212402 82 54 0.0 5.0 0.00 0.00 0.00 47 1009.4
20260504211932 82 113 0.0 4.0 0.00 0.00 0.00 48 1009.4
20260504211345 82 248 1.0 4.0 0.00 0.00 0.00 45 1009.5
20260504210901 82 36 1.0 4.0 0.00 0.00 0.00 47 1009.6
20260504210348 82 103 1.0 4.0 0.00 0.00 0.00 47 1009.7
20260504205920 82 87 1.0 5.0 0.00 0.00 0.00 48 1009.9
20260504205433 82 86 1.0 8.0 0.00 0.00 0.00 46 1010.0
20260504204847 82 122 2.0 8.0 0.00 0.00 0.00 44 1010.0
20260504204403 83 291 3.0 8.0 0.00 0.00 0.00 44 1010.2
20260504203913 83 28 0.0 3.0 0.00 0.00 0.00 48 1010.2
20260504203423 83 64 1.0 8.0 0.00 0.00 0.00 45 1010.3
20260504202436 82 145 1.0 7.0 0.00 0.00 0.00 46 1010.4
20260504201904 83 90 2.0 6.0 0.00 0.00 0.00 44 1010.5
20260504200857 82 262 1.0 9.0 0.00 0.00 0.00 45 1010.7
20260504195856 81 44 2.0 9.0 0.00 0.00 0.00 45 1010.8
20260504194907 82 137 1.0 11.0 0.00 0.00 0.00 47 1011.0
20260504193901 82 33 1.0 5.0 0.00 0.00 0.00 47 1011.1
20260504193407 82 85 1.0 8.0 0.00 0.00 0.00 45 1011.3
20260504192419 81 71 1.0 3.0 0.00 0.00 0.00 46 1011.3
20260504191426 81 78 2.0 6.0 0.00 0.00 0.00 45 1011.6
20260504190840 81 103 1.0 6.0 0.00 0.00 0.00 46 1011.6
20260504190436 82 69 2.0 5.0 0.00 0.00 0.00 45 1011.7
20260504185851 82 236 0.0 5.0 0.00 0.00 0.00 46 1011.8
20260504185431 82 32 1.0 5.0 0.00 0.00 0.00 44 1011.8
20260504184849 81 131 1.0 7.0 0.00 0.00 0.00 46 1011.9
20260504184420 81 40 1.0 7.0 0.00 0.00 0.00 47 1011.9
20260504183412 81 342 1.0 6.0 0.00 0.00 0.00 47 1012.0
20260504182952 81 325 0.0 2.0 0.00 0.00 0.00 45 1012.2
20260504182347 81 215 1.0 2.0 0.00 0.00 0.00 45 1012.4
20260504181358 80 86 2.0 8.0 0.00 0.00 0.00 45 1012.6
20260504180348 80 140 0.0 3.0 0.00 0.00 0.00 47 1012.5
20260504175913 79 150 1.0 6.0 0.00 0.00 0.00 46 1012.7
20260504175340 79 338 1.0 6.0 0.00 0.00 0.00 46 1012.6
20260504174921 79 61 1.0 7.0 0.00 0.00 0.00 46 1012.8
20260504174459 79 66 2.0 7.0 0.00 0.00 0.00 45 1012.8
20260504173843 79 66 2.0 7.0 0.00 0.00 0.00 46 1013.0
20260504172853 79 92 1.0 3.0 0.00 0.00 0.00 49 1013.2
20260504172424 78 215 1.0 5.0 0.00 0.00 0.00 47 1013.2
20260504171400 77 82 1.0 7.0 0.00 0.00 0.00 50 1013.4
20260504170358 77 49 2.0 5.0 0.00 0.00 0.00 49 1013.3
20260504160410 73 80 2.0 6.0 0.00 0.00 0.00 55 1014.0
20260504150400 69 90 1.0 6.0 0.00 0.00 0.00 62 1014.5
20260504140358 64 94 0.0 4.0 0.00 0.00 0.00 70 1014.6
20260504130420 60 217 0.0 3.0 0.00 0.00 0.00 79 1014.6
20260504100337 58 78 0.0 1.0 0.00 0.00 0.00 79 1014.2